Regional Weather Roundup
Issued by NWS

Home | Current Version | Previous Version | Text Only | Print | Product List | Glossary On
Versions: 1 2 3 4 5 6 7 8 9 10 11 12 13 14 15 16 17 18 19 20 21 22 23 24 25 26 27 28 29 30 31 32 33 34 35 36 37 38 39 40 41 42 43 44 45 46 47 48 49 50
000
ASUS42 KKEY 301610
RWRKEY

FLORIDA REGIONAL WEATHER ROUNDUP FOR THE FLORIDA KEYS
NATIONAL WEATHER SERVICE KEY WEST FLORIDA
1100 AM EST FRI JAN 30 2015

...SOUTH FLORIDA AND THE KEYS...

CITY           SKY/WX    TMP DP  RH WIND       PRES   REMARKS
FORT MYERS     SUNNY     69  49  48 VRB5      30.24S
SW REGIONAL AP SUNNY     69  50  50 VRB3      30.25S
NAPLES         SUNNY     69  51  52 VRB6      30.24S
MIAMI          MOSUNNY   71  51  49 NW10      30.23F
WEST KENDALL   SUNNY     73  52  47 N8        30.23F
HOMESTEAD      SUNNY     71  52  50 NW5       30.22F
MARATHON       SUNNY     69  56  62 NE10      30.22F
BOCA CHICA NAS SUNNY     71  55  56 N10       30.23F
KEY WEST INTL  SUNNY     71  56  58 N10       30.23F

...INTERNATIONAL WEATHER...

CITY           SKY/WX    TMP DP  RH WIND       PRES   REMARKS
NASSAU BAHAMAS PTSUNNY   72  54  53 VRB3      30.21R
CANCUN MEXICO  PTSUNNY   72  66  83 NW5       30.21R
COZUMEL MEXICO MOSUNNY   72  64  78 N9        30.20R

ADJACENT COASTAL WATERS...

STATION/POSITION TIME  SKY/WX   TEMP    WIND        PRES    WAVE
                                AIR SEA DIR/SP/G            HT/PER
                 (UTC)          (F)     (DEG/KT/KT) (MB)    (FT/S)
PULASKI SHOAL LI NOT AVBL
SAND KEY         NOT AVBL
SOMBRERO KEY     NOT AVBL
LONG KEY         NOT AVBL
MOLASSES REEF    NOT AVBL
FOWEY ROCKS      NOT AVBL
Buoy 42080       NOT AVBL

$$


USA.gov is the U.S. government's official web portal to all federal, state and local government web resources and services.